Weather History for Immokalee Regional Airport [I, FL

Change the Weather History Date:

Monday, May 12, 2014

  Actual Average (KFMY) Record (KFMY)
Temperature  
Mean Temperature 78 °F 78 °F  
Max Temperature 93 °F 89 °F 97 °F (2011)
Min Temperature 62 °F 68 °F 51 °F (1928)
Degree Days  
Heating Degree Days 0 0  
Month to date heating degree days 0  
Since 1 July heating degree days 287  
Cooling Degree Days 12 13  
Month to date cooling degree days 147  
Year to date cooling degree days 777  
Growing Degree Days 28 (Base 50)    
Moisture  
Dew Point 69 °F    
Average Humidity 69    
Maximum Humidity 100    
Minimum Humidity 38    
Precipitation  
Precipitation 0.00 in 0.06 in 1.08 in (1997)
Month to date precipitation 0.71  
Year to date precipitation 9.86  
Sea Level Pressure  
Sea Level Pressure 30.09 in    
Wind  
Wind Speed 5 mph (East)    
Max Wind Speed 20 mph    
Max Gust Speed 25 mph    
Visibility 7 miles    
Events      
T = Trace of Precipitation, MM = Missing Value Source: NWS Daily Summary

Daily Weather History Graph

Daily Weather History Graph

Search for Another Location

Airport:

Trip Planner

Search our weather history database for the weather conditions in past years. The results will help you decide how hot, cold, wet, or windy it might be!

Date:

Astronomy

May. 12, 2014 Rise Set
Actual Time 6:40 AM EDT 8:03 PM EDT
Civil Twilight 6:15 AM EDT 8:28 PM EDT
Nautical Twilight 5:45 AM EDT 8:58 PM EDT
Astronomical Twilight 5:14 AM EDT 9:29 PM EDT
Moon 6:11 PM EDT (5/12) 5:04 AM EDT (5/12)
Length of Visible Light 14h 13m
Length of Day
13h 23m
Waxing Gibbous, 95% of the Moon is Illuminated
May 12
Waxing Gibbous
May 14
Full
May 21
Last Quarter
May 28
New
Jun 5
First Quarter

Hourly Weather History & Observations

Time (EDT) Temp. Heat Index Dew Point Humidity Pressure Visibility Wind Dir Wind Speed Gust Speed Precip Events Conditions
12:15 AM 69.8 °F - 66.2 °F 88% 30.13 in 10.0 mi East 4.6 mph - 0.00 in   Clear
12:35 AM 69.8 °F - 66.2 °F 88% 30.12 in 10.0 mi Calm Calm - 0.00 in   Clear
1:15 AM 68.0 °F - 68.0 °F 100% 30.12 in 9.0 mi Calm Calm - 0.00 in   Clear
1:35 AM 68.0 °F - 68.0 °F 100% 30.11 in 10.0 mi Calm Calm - 0.00 in   Clear
2:15 AM 66.2 °F - 66.2 °F 100% 30.09 in 9.0 mi Calm Calm - 0.00 in   Clear
2:35 AM 66.2 °F - 66.2 °F 100% 30.09 in 9.0 mi Calm Calm - 0.00 in   Clear
2:55 AM 66.2 °F - 66.2 °F 100% 30.09 in 8.0 mi Calm Calm - 0.00 in   Clear
3:15 AM 64.4 °F - 64.4 °F 100% 30.09 in 7.0 mi Calm Calm - 0.00 in   Clear
3:35 AM 64.4 °F - - N/A% 30.08 in 9.0 mi Calm Calm - 0.00 in   Clear
4:15 AM 62.6 °F - - N/A% 30.08 in 6.0 mi Calm Calm - 0.00 in   Clear
4:35 AM 62.6 °F - - N/A% 30.08 in 5.0 mi Calm Calm - 0.00 in   Clear
4:55 AM 62.6 °F - - N/A% 30.08 in 5.0 mi Calm Calm - 0.00 in   Clear
5:15 AM 62.6 °F - - N/A% 30.08 in 7.0 mi Calm Calm - 0.00 in   Clear
5:35 AM 64.4 °F - - N/A% 30.08 in 7.0 mi Calm Calm - 0.00 in   Clear
5:55 AM 62.6 °F - - N/A% 30.08 in 7.0 mi Calm Calm - 0.00 in   Clear
6:15 AM 62.6 °F - - N/A% 30.08 in 6.0 mi Calm Calm - 0.00 in   Clear
6:55 AM 64.4 °F - - N/A% 30.08 in 5.0 mi Calm Calm - 0.00 in   Clear
7:15 AM 64.4 °F - - N/A% 30.09 in 5.0 mi Calm Calm - 0.00 in   Clear
7:35 AM 66.2 °F - - N/A% 30.10 in 5.0 mi Calm Calm - 0.00 in   Clear
7:55 AM 68.0 °F - - N/A% 30.11 in 5.0 mi Calm Calm - 0.00 in   Clear
8:15 AM 69.8 °F - - N/A% 30.11 in 5.0 mi Calm Calm - 0.00 in   Clear
8:35 AM 73.4 °F - 73.4 °F 100% 30.12 in 7.0 mi ENE 3.5 mph - 0.00 in   Partly Cloudy
8:55 AM 77.0 °F - 75.2 °F 94% 30.12 in 5.0 mi ENE 6.9 mph - 0.00 in   Scattered Clouds
9:15 AM 80.6 °F 86.2 °F 75.2 °F 84% 30.12 in 7.0 mi East 10.4 mph - 0.00 in   Scattered Clouds
9:35 AM 82.4 °F 89.5 °F 75.2 °F 79% 30.13 in 8.0 mi East 11.5 mph - 0.00 in   Clear
9:55 AM 82.4 °F 89.5 °F 75.2 °F 79% 30.13 in 6.0 mi East 10.4 mph - 0.00 in   Mostly Cloudy
10:15 AM 82.4 °F 88.2 °F 73.4 °F 74% 30.13 in 7.0 mi East 11.5 mph 16.1 mph 0.00 in   Mostly Cloudy
10:35 AM 82.4 °F 88.2 °F 73.4 °F 74% 30.14 in 7.0 mi ESE 9.2 mph - 0.00 in   Mostly Cloudy
10:55 AM 82.4 °F 89.5 °F 75.2 °F 79% 30.14 in 5.0 mi East 12.7 mph 18.4 mph 0.00 in   Mostly Cloudy
11:35 AM 87.8 °F 93.8 °F 71.6 °F 58% 30.13 in 5.0 mi ENE 11.5 mph 17.3 mph 0.00 in   Scattered Clouds
11:55 AM 87.8 °F 93.8 °F 71.6 °F 58% 30.13 in 7.0 mi East 12.7 mph - 0.00 in   Mostly Cloudy
12:15 PM 87.8 °F 93.8 °F 71.6 °F 58% 30.13 in 6.0 mi East 10.4 mph 17.3 mph 0.00 in   Mostly Cloudy
12:35 PM 87.8 °F 93.8 °F 71.6 °F 58% 30.12 in 5.0 mi East 11.5 mph - 0.00 in   Mostly Cloudy
12:55 PM 87.8 °F 93.8 °F 71.6 °F 58% 30.12 in 8.0 mi East 10.4 mph 18.4 mph 0.00 in   Mostly Cloudy
1:15 PM 91.4 °F 96.8 °F 69.8 °F 49% 30.11 in 7.0 mi East 13.8 mph 18.4 mph 0.00 in   Partly Cloudy
1:35 PM 89.6 °F 94.7 °F 69.8 °F 52% 30.10 in 6.0 mi East 18.4 mph 25.3 mph 0.00 in   Scattered Clouds
1:55 PM 91.4 °F 94.0 °F 66.2 °F 43% 30.09 in 7.0 mi East 16.1 mph 23.0 mph 0.00 in   Partly Cloudy
2:15 PM 91.4 °F 94.0 °F 66.2 °F 43% 30.08 in 7.0 mi East 17.3 mph - 0.00 in   Partly Cloudy
2:35 PM 91.4 °F 93.2 °F 64.4 °F 41% 30.08 in 5.0 mi East 19.6 mph - 0.00 in   Partly Cloudy
2:55 PM 93.2 °F 94.9 °F 64.4 °F 38% 30.07 in 5.0 mi East 15.0 mph 24.2 mph 0.00 in   Partly Cloudy
4:15 PM 91.4 °F 92.1 °F 62.6 °F 38% 30.06 in 5.0 mi East 13.8 mph 21.9 mph 0.00 in   Partly Cloudy
4:35 PM 91.4 °F 92.1 °F 62.6 °F 38% 30.06 in 4.0 mi ENE 16.1 mph 20.7 mph 0.00 in   Partly Cloudy
4:55 PM 93.2 °F 94.9 °F 64.4 °F 38% 30.05 in 3.0 mi East 15.0 mph 23.0 mph 0.00 in   Scattered Clouds
5:15 PM 89.6 °F 90.1 °F 62.6 °F 40% 30.05 in 6.0 mi ENE 17.3 mph - 0.00 in   Mostly Cloudy
5:35 PM 89.6 °F 90.1 °F 62.6 °F 40% 30.05 in 7.0 mi ENE 17.3 mph 23.0 mph 0.00 in   Scattered Clouds
6:15 PM 89.6 °F 90.1 °F 62.6 °F 40% 30.05 in 6.0 mi East 12.7 mph 24.2 mph 0.00 in   Partly Cloudy
6:35 PM 87.8 °F 87.6 °F 60.8 °F 40% 30.05 in 8.0 mi East 15.0 mph 20.7 mph 0.00 in   Clear
6:55 PM 87.8 °F 87.6 °F 60.8 °F 40% 30.05 in 8.0 mi East 12.7 mph - 0.00 in   Clear
7:15 PM 86.0 °F 86.6 °F 62.6 °F 45% 30.06 in 9.0 mi East 15.0 mph 18.4 mph 0.00 in   Clear
7:35 PM 84.2 °F 85.0 °F 62.6 °F 48% 30.06 in 8.0 mi East 12.7 mph - 0.00 in   Clear
7:55 PM 82.4 °F 83.9 °F 64.4 °F 54% 30.06 in 7.0 mi East 10.4 mph 19.6 mph 0.00 in   Clear
8:15 PM 80.6 °F 82.7 °F 66.2 °F 61% 30.07 in 7.0 mi East 12.7 mph - 0.00 in   Clear
8:35 PM 80.6 °F 83.9 °F 69.8 °F 70% 30.07 in 9.0 mi East 10.4 mph - 0.00 in   Clear
8:55 PM 78.8 °F - 69.8 °F 74% 30.08 in 9.0 mi East 8.1 mph - 0.00 in   Clear
9:15 PM 78.8 °F - 69.8 °F 74% 30.08 in 10.0 mi East 8.1 mph - 0.00 in   Clear
9:35 PM 77.0 °F - 71.6 °F 83% 30.08 in 9.0 mi East 6.9 mph - 0.00 in   Clear
9:55 PM 75.2 °F - 71.6 °F 89% 30.08 in 8.0 mi East 6.9 mph - 0.00 in   Clear
10:15 PM 75.2 °F - 71.6 °F 89% 30.09 in 8.0 mi East 6.9 mph - 0.00 in   Clear
10:55 PM 73.4 °F - 73.4 °F 100% 30.09 in 9.0 mi ENE 6.9 mph - 0.00 in   Clear
11:15 PM 73.4 °F - 73.4 °F 100% 30.09 in 8.0 mi ENE 6.9 mph - 0.00 in   Partly Cloudy
11:35 PM 73.4 °F - 73.4 °F 100% 30.09 in 8.0 mi East 6.9 mph - 0.00 in   Scattered Clouds
11:55 PM 73.4 °F - 73.4 °F 100% 30.08 in 7.0 mi East 8.1 mph - 0.00 in   Scattered Clouds